Terminal Aerodrome Forecast
Issued by NWS

Home | Current Version | Previous Version | Text Only | Print | Product List | Glossary On
Versions: 1 2 3 4 5 6 7 8 9 10 11 12 13 14 15 16 17 18 19 20 21 22
000
FTUS45 KTWC 022300
TAFOLS
TAF
KOLS 022323Z 0300/0324 21006KT P6SM FEW090
     FM030400 VRB05KT P6SM SKC
     FM031700 06003KT P6SM FEW090=

USA.gov is the U.S. government's official web portal to all federal, state and local government web resources and services.